Voltar ao catálogo

STARLINK-35969

AtivoComunicaçõesVLEO
NORAD 66523·PAYLOAD·🇺🇸 United States

Lançado Nov 19, 2025 de Cape Canaveral Space Force Station

Loading…

Próximas Passagens (próximas 24 horas)

TLE

AtualizadoSource: CelesTrak SupGP

Época: Sep 14, 2026, 23:05 UTC

1 66523C 25265H   26257.96229167  .00029764  00000+0  10780-2 0  2578
2 66523  43.0002 288.9636 0001487 268.3115 353.1109 15.27563975    14

Acompanhe STARLINK-35969 em tempo real com AllMySat

Download on the App Store